Regional Weather Roundup
Issued by NWS

Home | Current Version | Previous Version | Text Only | Print | Product List | Glossary Off
Versions: 1 2 3 4 5 6 7 8 9 10 11 12 13 14 15 16 17 18 19 20 21 22 23 24 25 26 27 28 29 30 31 32 33 34 35 36 37 38 39 40 41 42 43 44 45 46 47 48 49 50

000
ASUS43 KLOT 111803
RWRIL

ILLINOIS REGIONAL WEATHER ROUNDUP
NATIONAL WEATHER SERVICE CHICAGO/ROMEOVILLE IL
1200 PM CST MON DEC 11 2017

NOTE: "FAIR" INDICATES FEW OR NO CLOUDS BELOW 12,000 FEET WITH NO
SIGNIFICANT WEATHER AND/OR OBSTRUCTIONS TO VISIBILITY.

* THESE STATIONS ARE NOT UNDER NWS QUALITY CONTROL. THEY ALSO MAY NOT
  REPORT WEATHER SUCH AS PRECIPITATION OR FOG.

ILZ001-002-007-009-015-016-024-111900-
NORTHWEST ILLINOIS

CITY           SKY/WX    TMP DP  RH WIND       PRES   REMARKS
MOLINE         SUNNY     45  27  49 W6        29.65F
6HR MIN TEMP:  32; 6HR MAX TEMP:  46;

STERLING*      SUNNY     42  27  55 SE6       29.68F
SAVANNA*       CLOUDY    38  27  65 E3        29.68F
$$

ILZ003-004-008-010-011-017-018-111900-
NORTH CENTRAL ILLINOIS

CITY           SKY/WX    TMP DP  RH WIND       PRES   REMARKS
ROCKFORD       CLOUDY    35  25  66 SE10      29.73F WCI  27
6HR MIN TEMP:  25; 6HR MAX TEMP:  35;

FREEPORT*      CLOUDY    34  25  69 E7        29.71F WCI  28
ROCHELLE*      MOSUNNY   38  27  65 SE10      29.70F WCI  31
DE KALB*       CLOUDY    36  27  69 SE10      29.72F WCI  28
PERU*          CLOUDY    40  27  59 E6        29.69F
$$

ILZ005-006-012>014-019>023-111900-
NORTHEAST ILLINOIS

CITY           SKY/WX    TMP DP  RH WIND       PRES   REMARKS
CHICAGO-OHARE  CLOUDY    35  24  64 S12       29.74F WCI  27
6HR MIN TEMP:  28; 6HR MAX TEMP:  35;

CHICAGO-MIDWAY CLOUDY    36  25  64 S9        29.75F WCI  29
6HR MIN TEMP:  28; 6HR MAX TEMP:  36;

AURORA         CLOUDY    38  27  64 SE12      29.72F WCI  30
6HR MIN TEMP:  24; 6HR MAX TEMP:  38;

LANSING*       CLOUDY    36  28  72 S13       29.78F WCI  27
WAUKEGAN       CLOUDY    33  25  72 S9        29.74F WCI  25
6HR MIN TEMP:  25; 6HR MAX TEMP:  33; 6HR PCP:  0.01;

DUPAGE AIRPORT CLOUDY    35  26  69 S9        29.72F WCI  28
6HR MIN TEMP:  25; 6HR MAX TEMP:  35;

WHEELING       CLOUDY    35  26  69 S8        29.75F WCI  29
6HR MIN TEMP:  27; 6HR MAX TEMP:  35;

ROMEOVILLE*    CLOUDY    37  27  67 SE9       29.73F WCI  30
NORTHERLY ISL    N/A     34  24  67 S9          N/A  WCI  27
$$

LMZ740>746-111900-
SOUTHERN LAKE MICHIGAN

STATION/POSITION SKY/WX   TEMP    WIND        PRES    VSBY  WAVE
                          AIR SEA DIR/SP/G                  HT/PER
                          (F)     (DEG/KT/KT) (MB)    (MI)  (FT/S)
HARRISON CRIB              33     170/ 18/ 20   N/A
BURNHAM HARBOR             34     170/  8/ 11   N/A
CALUMET HARBOR             34     160/  7/ 11 1008.1F
BURNS HARBOR               33     160/ 12/ 17 1009.1F
MICHIGAN CITY              31     140/ 13/ 15   N/A
$$

ILZ025>027-034>036-040-047-049-050-058-095>099-111900-
WEST-CENTRAL ILLINOIS

CITY           SKY/WX    TMP DP  RH WIND       PRES   REMARKS
QUINCY         CLOUDY    47  22  37 W17G29    29.73F
GALESBURG*     SUNNY     45  28  52 W13G18    29.66F
MACOMB*        CLOUDY    47  26  44 W26G33    29.70F
PITTSFIELD*    CLOUDY    48  25  39 W20G28    29.75F
$$

ILZ028>032-037-038-041>044-048-051>054-059>061-111900-
CENTRAL ILLINOIS

CITY           SKY/WX    TMP DP  RH WIND       PRES   REMARKS
BLOOMINGTON    CLOUDY    45  28  51 S17       29.66F
DECATUR        MOSUNNY   49  28  44 S16G28    29.69F
PEORIA         CLOUDY    45  29  53 SW13      29.70F
6HR MIN TEMP:  28; 6HR MAX TEMP:  45;

LACON*         CLOUDY    44  28  52 W8        29.69R
LINCOLN*       CLOUDY    48  30  49 S7G16     29.66F
SPRINGFIELD    CLOUDY    50  27  40 SW15G22   29.70F
6HR MIN TEMP:  31; 6HR MAX TEMP:  50;

TAYLORVILLE    MOSUNNY   50  27  40 S24G30    29.70F
6HR MIN TEMP:  29; 6HR MAX TEMP:  51;

$$

ILZ033-039-045-046-055>057-062-063-111900-
EAST-CENTRAL ILLINOIS

CITY           SKY/WX    TMP DP  RH WIND       PRES   REMARKS
CHAMPAIGN      MOSUNNY   48  28  46 S21       29.71F
DANVILLE*      SUNNY     43  27  52 S16       29.73F
MATTOON        SUNNY     46  30  53 S18G28    29.73F
PARIS*         SUNNY     46  30  55 S20       29.77F
$$

ILZ079-100>102-111900-
SOUTHWEST ILLINOIS

CITY           SKY/WX    TMP DP  RH WIND       PRES   REMARKS
ALTON          PTSUNNY   54  30  40 W15G23    29.78F
BELLEVILLE     SUNNY     59  27  30 W14G21    29.75F
CAHOKIA*       SUNNY     59  25  27 SW12G23   29.78F
$$

ILZ064>066-069>071-074>076-080>082-084>086-088>090-092>094-111900-
SOUTH-CENTRAL ILLINOIS

CITY           SKY/WX    TMP DP  RH WIND       PRES   REMARKS
CARBONDALE     MOSUNNY   54  29  38 S21G31    29.85F
6HR MIN TEMP:  23; 6HR MAX TEMP:  56;

CAIRO*         SUNNY     56  32  40 S16G25    29.93F
EFFINGHAM*     SUNNY     52  32  45 SE10G21   29.77F
MARION         MOSUNNY   55  28  35 S21G30    29.86F
MT. VERNON     MOSUNNY   56  31  38 SW21G28   29.79F
CENTRALIA*     SUNNY     55  32  41 S16       29.77F
SALEM*         SUNNY     56  28  34 S23G30    29.77F
METROPOLIS*    SUNNY     56  31  38 S10G18    29.94F
$$

ILZ067-068-072-073-078-083-087-091-111900-
SOUTHEAST ILLINOIS

CITY           SKY/WX    TMP DP  RH WIND       PRES   REMARKS
LAWRENCEVILLE  MOSUNNY   49  32  52 S20       29.83F
FLORA*         CLOUDY    54  31  42 S24G31    29.77F
HARRISBURG*    SUNNY     56  32  40 SW20G28   29.87F
ROBINSON*      PTSUNNY   46  30  54 S14       29.82F
CARMI*         MOSUNNY   50  34  53 S16       29.84F
$$

ABBREVIATIONS USED IN REMARKS
   TC - TEMPERATURE IN CELSIUS
  WCI - WIND CHILL INDEX
   HX - HEAT INDEX
  VSB - VISIBILITY
$$





USA.gov is the U.S. government's official web portal to all federal, state and local government web resources and services.